Regional Weather Roundup
Issued by NWS

Home | Current Version | Previous Version | Graphics & Text | Print | Product List | Glossary On
Versions: 1 2 3 4 5 6 7 8 9 10 11 12 13 14 15 16 17 18 19 20 21 22 23 24 25 26 27 28 29 30 31 32 33 34 35 36 37 38 39 40 41 42 43 44 45 46 47 48 49 50
000
ASUS45 KBOU 140907
RWRCO

WEATHER ROUNDUP FOR COLORADO
NATIONAL WEATHER SERVICE DENVER/BOULDER CO
200 AM MST SUN FEB 14 2016

NOTE: "FAIR" INDICATES FEW OR NO CLOUDS BELOW 12000 FEET WITH NO
SIGNIFICANT WEATHER AND/OR OBSTRUCTIONS TO VISIBILITY.

COZ001>005-013-030-031-141000-
...NORTHWEST COLORADO...

CITY           SKY/WX    TMP DP  RH WIND       PRES   REMARKS
CRAIG          FAIR       7   3  84 NE3       30.20F
HAYDEN         FAIR      21  14  73 E6        30.18F WCI  14
MEEKER         FAIR      17  11  77 VRB3      30.18F
MOUNT WERNER   NOT AVBL
STEAMBOAT SPGS FAIR      19  14  80 CALM      30.18F
WALDEN         FAIR      28  12  50 S12       30.13F WCI  18
$$

COZ006>008-011-141000-
...WEST CENTRAL VALLEYS...

CITY           SKY/WX    TMP DP  RH WIND       PRES   REMARKS
GRAND JUNCTION FAIR      27  25  92 CALM      30.20S
MONTROSE       FAIR      28  23  81 S10       30.23F WCI  19
EAGLE          FAIR      21  19  93 E5        30.22F WCI  15
RIFLE          FAIR      22  17  81 CALM      30.22F
DELTA          FAIR      31  27  86 E3        30.23S
NUCLA          FAIR      30  25  80 E5        30.25F WCI  25
$$

COZ017>023-064>068-141000-
...SOUTHWEST COLORADO...

CITY           SKY/WX    TMP DP  RH WIND       PRES   REMARKS
DURANGO        FAIR      27  17  66 NE8       30.16R WCI  19
CORTEZ         FAIR      26  21  81 E8        30.20R HAZE    WCI  18
PAGOSA SPRINGS FAIR      26  17  68 CALM      30.17S
TELLURIDE      NOT AVBL
WOLF CREEK PAS FAIR      25 -11  20 W3        30.29S
$$

COZ009-010-012-014-032>034-037-058>063-141000-
...CENTRAL COLORADO...

CITY           SKY/WX    TMP DP  RH WIND       PRES   REMARKS
ASPEN          FAIR      21  10  62 S6        30.19F WCI  13
BUENA VISTA    FAIR      37   8  30 NW14G20   30.12S
COPPER MTN     FAIR      21   7  53 W9        30.21F WCI  11
BERTHOUD PASS  FAIR      12   1  62 MISG      30.16F
COTTONWOOD PAS FAIR      36   1  23 SW26G37   30.14S
GUNNISON       FAIR       1  -6  71 CALM      30.28R
KREMMLING      FAIR      19  10  68 CALM      30.20F
LEADVILLE      FAIR      25   8  48 N8        30.18F WCI  16
MONARCH PASS   FAIR      19   9  63 W38       30.30F WCI  -1
SALIDA         NOT AVBL
SUNLIGHT       FAIR      23  14  68 CALM        N/A
WILKERSON PASS FAIR      27   1  33 W16G26    30.12F WCI  14
$$

COZ069>075-141000-
...SAN LUIS VALLEY/SANGRE DE CRISTO MOUNTAINS...

CITY           SKY/WX    TMP DP  RH WIND       PRES   REMARKS
ALAMOSA        FAIR      26  20  77 W8        30.15S WCI  18
LA VETA PASS   NOT AVBL
SAGUACHE       FAIR      34  16  47 N9        30.16S WCI  26
$$

COZ035-036-038>040-141000-
...NORTHERN COLORADO FRONT RANGE...

CITY           SKY/WX    TMP DP  RH WIND       PRES   REMARKS
DENVER INTL AP FAIR      30  24  78 SE13      30.01F WCI  20
DMNS CITY PARK   N/A     35  24  63 S12G20    30.03F WCI  27
AURORA         PTCLDY    28  26  91 S10       30.04F WCI  19
FRONT RANGE AP   N/A     30  27  86 SE8       30.03F WCI  23
ERIE MUNI ARPT FAIR      35  27  72 S10       30.01F WCI  27
BOULDER MUN AP FAIR      36  27  69 E13G18    29.98F
CENTENNIAL     FAIR      32  23  69 S10       30.04F WCI  24
BROOMFIELD     FAIR      34  27  75 S8G20     30.03S WCI  27
FORT COLLINS   FAIR      37  18  44 S14G21    29.98F
LONGMONT       FAIR      37  27  66 S6        30.02F
$$

COZ041-046-047-076>085-087-088-141000-
...PIKES PEAK/PALMER DIVIDE AND SOUTHERN FOOTHILLS...

CITY           SKY/WX    TMP DP  RH WIND       PRES   REMARKS
COLO. SPRINGS  FAIR      34  20  56 N13       30.05S WCI  25
A. F. ACADEMY  FAIR      30  18  61 N10       30.04S WCI  21
SCHRIEVER AFB  FAIR      31  22  67 N18G25    30.04F WCI  19
ELLICOTT       FAIR     N/A N/A N/A NE16G23   30.01F
FALCON         FAIR      30  20  68 N14       30.06S WCI  19
FORT CARSON    FAIR      33  19  55 N7        30.02F WCI  27
LIMON          FAIR      25  24  96 NW9       30.04F WCI  15
MONUMENT HILL  FAIR      25  19  80 SE7       30.06F WCI  17
TRINIDAD       FAIR      39  17  41 NE18G35   30.10R
$$

COZ042>045-048>051-090-091-141000-
...NORTHEAST COLORADO...

CITY           SKY/WX    TMP DP  RH WIND       PRES   REMARKS
GREELEY ARPT   FAIR      36  21  55 NE7       29.98S
AKRON          FAIR      32  23  69 N16       30.01F WCI  21
BURLINGTON     FAIR      33  24  69 N12       30.02F WCI  24
WRAY           FAIR      32  26  78 W8        30.02F WCI  25
STERLING       FAIR      34  27  75 N6        30.03S WCI  29
HOLYOKE        FAIR      37  28  70 NW14      30.01S
FORT MORGAN    FAIR      36  23  58 N23G29    29.99F
$$

COZ086-089-092>099-141000-
...SOUTHEAST COLORADO...

CITY           SKY/WX    TMP DP  RH WIND       PRES   REMARKS
PUEBLO         FAIR      35  24  64 SE8       30.07R WCI  29
LA JUNTA       FAIR      34  28  79 E6        30.07S WCI  29
LAMAR          FAIR      34  27  75 N5        30.03F WCI  30
SPRINGFIELD      N/A     31  27  85 N15       30.04R WCI  20
$$



USA.gov is the U.S. government's official web portal to all federal, state and local government web resources and services.